Simultaneous Nadir Overpasses (SNOs) Predictions

Prediction of SNOs between METOP-B and NOAA-19 Satellite Orbit:

Table of predicted SNOs for the next 14.0 days since TLE Epoch: 12/18/2015
Index Date (METOP-B) Time (METOP-B) Lat,Lon (METOP-B) SZA (METOP-B ) Date (NOAA-19) Time (NOAA-19) Lat,Lon (NOAA-19) SZA (NOAA-19 ) Distance(km) Time Diff (sec)
1 12/28/2015 15:54:21 -75.94, 121.38 80.88 12/28/2015 15:53:12 -75.92, 119.14 80.87 60.62 69
2 12/28/2015 16:45:08 75.58, -72.41 98.78 12/28/2015 16:44:01 75.59, -72.46 98.79 1.41 67
3 12/28/2015 17:35:51 -75.54, 94.78 81.27 12/28/2015 17:35:06 -75.55, 94.91 81.26 3.76 45
4 12/28/2015 18:26:30 75.56, -97.82 98.75 12/28/2015 18:26:03 75.58, -97.92 98.77 3.11 27
5 12/28/2015 19:17:13 -75.52, 69.37 81.29 12/28/2015 19:17:08 -75.53, 69.45 81.28 2.56 5
6 12/28/2015 20:07:52 75.54,-123.22 98.73 12/28/2015 20:08:04 75.52,-123.23 98.70 2.84 12
7 12/28/2015 20:58:35 -75.50, 43.97 81.32 12/28/2015 20:59:10 -75.52, 43.99 81.30 2.21 35
8 12/28/2015 21:49:14 75.52,-148.63 98.71 12/28/2015 21:50:06 75.50,-148.69 98.69 2.65 52
9 12/28/2015 22:39:57 -75.48, 18.57 81.34 12/28/2015 22:41:12 -75.50, 18.53 81.32 3.06 75




NCC Satellite Simultaneous Nadir Overpasses (SNOs) Prediction Service
